Regional Weather Roundup
Issued by NWS

Home | Current Version | Previous Version | Graphics & Text | Print | Product List | Glossary On
Versions: 1 2 3 4 5 6 7 8 9 10 11 12 13 14 15 16 17 18 19 20 21 22 23 24 25 26 27 28 29 30 31 32 33 34 35 36 37 38 39 40 41 42 43 44 45 46 47 48 49 50
000
ASUS43 KMKX 201821
RWRWI

WISCONSIN REGIONAL WEATHER ROUNDUP
NATIONAL WEATHER SERVICE MILWAUKEE/SULLIVAN WI
100 PM CDT THU JUL 20 2017

NOTE: "FAIR" INDICATES FEW OR NO CLOUDS BELOW 12,000 FEET WITH NO
SIGNIFICANT WEATHER AND/OR OBSTRUCTIONS TO VISIBILITY.

WIZ001-002-006>008-014>016-023>028-201900-
NORTHWEST WISCONSIN

CITY           SKY/WX    TMP DP  RH WIND       PRES   REMARKS
SUPERIOR ARPT  NOT AVBL
ASHLAND        CLOUDY    82  66  58 W9        29.98S HX  84
6HR MIN TEMP:  64; 6HR MAX TEMP:  82;

HAYWARD        CLOUDY    81  62  52 SW10      30.01F HX  82
6HR MIN TEMP:  57; 6HR MAX TEMP:  81;

SIREN          CLOUDY    81  64  56 SW8       30.02F HX  82
6HR MIN TEMP:  62; 6HR MAX TEMP:  81;

CUMBERLAND     MOSUNNY   79  64  61 W6        30.03F HX  81
RICE LAKE      MOSUNNY   81  67  63 W6        30.03F HX  83
6HR MIN TEMP:  60; 6HR MAX TEMP:  80;

CHETEK         MOSUNNY   81  69  67 CALM      30.02F HX  84
6HR MIN TEMP:  62; 6HR MAX TEMP:  81;

LADYSMITH      MOSUNNY   81  66  60 W8        30.04F HX  83
6HR MIN TEMP:  63; 6HR MAX TEMP:  81;

EAU CLAIRE     CLOUDY    81  67  62 NW6       30.01F HX  83
6HR MIN TEMP:  68; 6HR MAX TEMP:  81;

MENOMONIE      PTSUNNY   80  69  67 W5        30.02F HX  83
6HR MIN TEMP:  67; 6HR MAX TEMP:  81;

NEW RICHMOND   CLOUDY    80  66  62 NW3       30.03F HX  82
6HR MIN TEMP:  64; 6HR MAX TEMP:  80; 6HR PCP:  0.01;

OSCEOLA        PTSUNNY   80  68  65 S6        30.05R HX  82
6HR MIN TEMP:  64; 6HR MAX TEMP:  81;

$$

WIZ003>005-009-010-017-018-201900-
NORTH CENTRAL WISCONSIN

CITY           SKY/WX    TMP DP  RH WIND       PRES   REMARKS
MANITOWISH WTR MOSUNNY   80  63  55 NW9       30.00S HX  82
6HR MIN TEMP:  61; 6HR MAX TEMP:  82;

ARBOR VITAE    CLOUDY    82  66  57 W7        30.00S HX  84
6HR MIN TEMP:  63; 6HR MAX TEMP:  82;

WOODRUFF       CLOUDY    82  66  57 W7        30.00S HX  84
6HR MIN TEMP:  63; 6HR MAX TEMP:  82;

RHINELANDER    CLOUDY    82  65  56 W9        30.02S HX  84
6HR MIN TEMP:  64; 6HR MAX TEMP:  82;

EAGLE RIVER    CLOUDY    81  58  45 W10G18    30.00S HX  81
6HR MIN TEMP:  62; 6HR MAX TEMP:  81;

LAND O LAKES   MOSUNNY   82  60  47 W7        30.01S HX  82
6HR MIN TEMP:  60; 6HR MAX TEMP:  82;

PHILLIPS       PTSUNNY   79  67  67 SW9       30.02S HX  81
6HR MIN TEMP:  62; 6HR MAX TEMP:  78;

TOMAHAWK         N/A     79  63  58 W9        30.02F HX  81
6HR MIN TEMP:  60; 6HR MAX TEMP:  79;

MEDFORD        SUNNY     79  65  62 NW7       30.02F HX  81
6HR MIN TEMP:  65; 6HR MAX TEMP:  79;

MERRILL        SUNNY     81  67  61 NW6       30.01F HX  83
6HR MIN TEMP:  66; 6HR MAX TEMP:  80;

$$

WIZ029-030-035-036-043>047-201900-
CENTRAL WISCONSIN

CITY           SKY/WX    TMP DP  RH WIND       PRES   REMARKS
WAUSAU         SUNNY     78  65  63 W10       30.00S HX  80
6HR MIN TEMP:  69; 6HR MAX TEMP:  79;

MOSINEE        MOSUNNY   81  66  61 W10       30.02F HX  83
MARSHFIELD     MOSUNNY   80  68  66 W9        30.01F HX  83
6HR MIN TEMP:  67; 6HR MAX TEMP:  80;

STEVENS POINT  SUNNY     78  67  68 W8        30.01F HX  81
6HR MIN TEMP:  66; 6HR MAX TEMP:  78;

WAUPACA        MOSUNNY   83  69  61 W9        29.98F HX  87
6HR MIN TEMP:  71; 6HR MAX TEMP:  84;

WAUTOMA        MOSUNNY   82  71  69 W13G18    29.98F HX  86
6HR MIN TEMP:  69; 6HR MAX TEMP:  82;

WISC RAPIDS    CLOUDY    81  70  69 VRB6      30.01F HX  84
6HR MIN TEMP:  69; 6HR MAX TEMP:  81;

CAMP DOUGLAS   PTSUNNY   82  72  69 W8        30.00F HX  87
$$

WIZ011>013-019>022-031-037>040-048>050-201900-
NORTHEAST WISCONSIN

CITY           SKY/WX    TMP DP  RH WIND       PRES   REMARKS
ANTIGO         SUNNY     79  65  60 NW12      30.02S HX  81
6HR MIN TEMP:  66; 6HR MAX TEMP:  79;

SHAWANO        MOSUNNY   83  67  58 W7        29.97S HX  86
6HR MIN TEMP:  73; 6HR MAX TEMP:  83;

OCONTO         CLOUDY    81  65  59 W12G18    29.94F HX  83
6HR MIN TEMP:  70; 6HR MAX TEMP:  81;

STURGEON BAY     N/A     78  68  71 W14       29.95F HX  80
6HR MIN TEMP:  71; 6HR MAX TEMP:  78;

GREEN BAY      MOSUNNY   82  72  71 NW9       29.95F HX  87
6HR MIN TEMP:  71; 6HR MAX TEMP:  83;

MANITOWOC      PTSUNNY   82  68  62 NW10      29.95F HX  85
6HR MIN TEMP:  71; 6HR MAX TEMP:  82;

APPLETON       PTSUNNY   81  66  61 W12G17    29.96F HX  83
CLINTONVILLE   SUNNY     81  64  57 W10       29.98S HX  82
OSHKOSH        MOSUNNY   82  70  66 W8        29.96F HX  86
6HR MIN TEMP:  69; 6HR MAX TEMP:  83;

$$

WIZ032>034-041-042-053>061-201900-
SOUTHWEST WISCONSIN

CITY           SKY/WX    TMP DP  RH WIND       PRES   REMARKS
LA CROSSE      SUNNY     84  70  62 VRB6      29.99F HX  88
6HR MIN TEMP:  73; 6HR MAX TEMP:  85;

SPARTA         CLOUDY    81  70  69 NW5       30.01F HX  84
6HR MIN TEMP:  65; 6HR MAX TEMP:  81;

VIROQUA        SUNNY     81  71  70 N6        30.03F HX  85
6HR MIN TEMP:  67; 6HR MAX TEMP:  82;

BOSCOBEL       CLOUDY    85  73  67 NW3       29.98F HX  91
6HR MIN TEMP:  70; 6HR MAX TEMP:  85;

PRAIRIE DU CHI CLOUDY    82  70  66 N3        29.98F HX  86
PLATTEVILLE    CLOUDY    81  77  89 W5        29.99F HX  88
6HR MIN TEMP:  68; 6HR MAX TEMP:  81;

$$

WIZ056-057-062-063-064-067-068-201900-
SOUTH CENTRAL WISCONSIN

CITY           SKY/WX    TMP DP  RH WIND       PRES   REMARKS
REEDSBURG      MOSUNNY   82  72  73 NW8       29.99S HX  86
6HR MIN TEMP:  67; 6HR MAX TEMP:  82;

BARABOO/DELLS  PTSUNNY   84  67  56 NW8       29.99F HX  87
6HR MIN TEMP:  67; 6HR MAX TEMP:  85;

LONE ROCK      MOSUNNY   84  73  69 NW7       29.98F HX  90
6HR MIN TEMP:  68; 6HR MAX TEMP:  84;

MINERAL POINT  MOSUNNY   84  77  79 W8        30.01S HX  94
MADISON        PTSUNNY   83  72  69 VRB6      29.98S HX  88
6HR MIN TEMP:  68; 6HR MAX TEMP:  83;

MIDDLETON      SUNNY     83  72  70 W6        30.00S HX  88
6HR MIN TEMP:  69; 6HR MAX TEMP:  83;

WATERTOWN      MOSUNNY   80  74  80 NW6       29.98S HX  85
6HR MIN TEMP:  67; 6HR MAX TEMP:  80;

MONROE         PTSUNNY   81  72  74 W10       29.99R HX  84
JANESVILLE     PTSUNNY   86  75  70 W15       29.96F HX  95
$$

WIZ051-052-058>065-066-070>072-201900-
SOUTHEAST WISCONSIN

CITY           SKY/WX    TMP DP  RH WIND       PRES   REMARKS
MILWAUKEE      MOSUNNY   81  71  71 NE9       29.96F HX  85
6HR MIN TEMP:  70; 6HR MAX TEMP:  85; 6HR PCP:  0.02;

WAUKESHA       PTSUNNY   81  70  69 W10       29.99S HX  84
MILWAUKEE/TIMM MOSUNNY   81  66  61 NW12      29.98S HX  83
RACINE         MOSUNNY   84  72  67 NW13      29.97F HX  89
6HR MIN TEMP:  68; 6HR MAX TEMP:  84;

KENOSHA        MOSUNNY   85  72  65 NW10G17   29.96F HX  91
6HR MIN TEMP:  68; 6HR MAX TEMP:  85; 6HR PCP:  0.08;

FOND DU LAC    CLOUDY    82  69  64 NW10      29.97F HX  85
6HR MIN TEMP:  69; 6HR MAX TEMP:  82; 6HR PCP: TRACE;

SHEBOYGAN      MOSUNNY   81  72  74 NW7       29.96F HX  85
6HR MIN TEMP:  68; 6HR MAX TEMP:  82;

WEST BEND      PTSUNNY   81  70  69 W6        29.97F HX  84
JUNEAU         PTSUNNY   79  70  74 W5        29.99F HX  82
6HR MIN TEMP:  67; 6HR MAX TEMP:  79; 6HR PCP:  0.05;

$$

LSZ147-162-201900-
LAKE SUPERIOR

STATION/POSITION TIME  TEMP    WIND        PRES    WAVE
                       AIR SEA DIR/SP/G            HT/PER
                 (UTC) (F)     (DEG/KT/KT) (MB)    (FT/S)
W MID LAKE BUOY  1650   51 47  220/ 12/ 12 1014.2R   0
DEVILS ISLAND    1800   68     210/  8/ 12 1014.6F
SAXON HARBOR     1740   76      40/  1/  2 1015.2R
$$

LMZ867-665-643>646-201900-
LAKE MICHIGAN

STATION/POSITION TIME  TEMP    WIND        PRES    WAVE
                       AIR SEA DIR/SP/G            HT/PER
                 (UTC) (F)     (DEG/KT/KT) (MB)    (FT/S)
CHAMBERS ISLAND  1740   78     200/  6/ 10 1013.5S
S GREEN BAY BUOY 1730   74 72  270/  6/  8 1014.2F
N MID LAKE BUOY  1750   67 64  220/  8/  8 1014.1F   1/ 4
NORTHPORT PIER   1740   79     280/  4/ 11 1013.2F
KEWAUNEE LAKESHO 1754   81     290/  6/



USA.gov is the U.S. government's official web portal to all federal, state and local government web resources and services.